Voltar ao catálogo

SL-12 DEB

LostHEO
NORAD 26849·DEBRIS·🇷🇺 Russia

Lançado Dec 24, 1985 de Baikonur Cosmodrome

Loading…

Próximas Passagens (próximas 24 horas)

TLE

ObsoletoSource: Space-Track

Época: Oct 27, 2025, 08:40 UTC

1 26849U 85118AC  25300.36177660 -.00000027  00000-0  00000-0 0  9998
2 26849  60.9146  31.2587 4142586  78.7309 357.8574  5.16634789  2535

Acompanhe SL-12 DEB em tempo real com AllMySat

Download on the App Store